TimeEDT,TemperatureF,Dew PointF,Humidity,Sea Level PressureIn,VisibilityMPH,Wind Direction,Wind SpeedMPH,Gust SpeedMPH,PrecipitationIn,Events,Conditions,WindDirDegrees,DateUTC
12:15 AM,54.1,51.1,89,30.09,10.0,Calm,Calm,-,N/A,,Clear,0,2013-08-19 04:15:00
12:35 AM,54.5,51.6,90,30.09,10.0,SSW,5.8,-,N/A,,Clear,210,2013-08-19 04:35:00
12:55 AM,53.6,50.7,90,30.09,10.0,SW,6.9,-,N/A,,Clear,230,2013-08-19 04:55:00
1:15 AM,54.3,52.0,92,30.09,10.0,South,6.9,-,N/A,,Clear,190,2013-08-19 05:15:00
1:35 AM,52.7,49.6,89,30.09,7.0,SW,5.8,-,N/A,,Clear,220,2013-08-19 05:35:00
1:55 AM,53.4,51.1,92,30.08,7.0,SSW,5.8,-,N/A,,Clear,210,2013-08-19 05:55:00
2:15 AM,52.9,50.4,91,30.08,7.0,Calm,Calm,-,N/A,,Clear,0,2013-08-19 06:15:00
2:35 AM,52.9,50.4,91,30.08,5.0,SW,4.6,-,N/A,,Clear,220,2013-08-19 06:35:00
2:55 AM,53.6,51.3,92,30.07,10.0,Calm,Calm,-,N/A,,Clear,0,2013-08-19 06:55:00
3:15 AM,52.7,50.2,91,30.06,7.0,SSW,3.5,-,N/A,,Clear,210,2013-08-19 07:15:00
3:35 AM,52.9,50.4,91,30.06,10.0,SSW,3.5,-,N/A,,Clear,200,2013-08-19 07:35:00
3:55 AM,53.6,51.1,91,30.06,10.0,Calm,Calm,-,N/A,,Clear,0,2013-08-19 07:55:00
4:15 AM,52.9,50.0,90,30.05,10.0,Calm,Calm,-,N/A,,Clear,0,2013-08-19 08:15:00
4:35 AM,52.9,50.4,91,30.04,10.0,SW,5.8,-,N/A,,Clear,220,2013-08-19 08:35:00
4:55 AM,52.7,50.4,92,30.04,7.0,SW,5.8,-,N/A,,Clear,220,2013-08-19 08:55:00
5:15 AM,52.3,50.0,92,30.03,7.0,SSW,5.8,-,N/A,,Clear,210,2013-08-19 09:15:00
5:35 AM,52.3,50.0,92,30.04,7.0,SSW,6.9,-,N/A,,Clear,210,2013-08-19 09:35:00
5:55 AM,52.5,50.0,91,30.04,7.0,SSW,5.8,-,N/A,,Clear,210,2013-08-19 09:55:00
6:15 AM,52.7,50.2,91,30.03,7.0,SSW,5.8,-,N/A,,Clear,210,2013-08-19 10:15:00
6:35 AM,52.9,50.5,92,30.04,7.0,SSW,3.5,-,N/A,,Clear,210,2013-08-19 10:35:00
6:55 AM,54.1,51.6,91,30.03,10.0,SSW,5.8,-,N/A,,Clear,200,2013-08-19 10:55:00
7:15 AM,55.4,52.3,89,30.03,10.0,SSW,6.9,-,N/A,,Clear,210,2013-08-19 11:15:00
7:35 AM,57.2,54.0,89,30.03,10.0,SSW,5.8,-,N/A,,Clear,200,2013-08-19 11:35:00
7:55 AM,60.4,55.2,83,30.03,10.0,SSW,3.5,-,N/A,,Clear,210,2013-08-19 11:55:00
8:15 AM,62.1,56.3,81,30.04,10.0,South,3.5,-,N/A,,Clear,190,2013-08-19 12:15:00
8:35 AM,64.4,55.8,73,30.04,10.0,South,3.5,-,N/A,,Clear,180,2013-08-19 12:35:00
8:55 AM,65.5,55.9,71,30.03,10.0,SE,3.5,-,N/A,,Clear,140,2013-08-19 12:55:00
9:15 AM,68.7,56.7,65,30.03,10.0,SW,5.8,-,N/A,,Clear,230,2013-08-19 13:15:00
9:35 AM,69.3,55.2,61,30.03,10.0,SW,8.1,-,N/A,,Clear,220,2013-08-19 13:35:00
9:55 AM,70.0,55.6,60,30.02,10.0,SW,5.8,-,N/A,,Clear,230,2013-08-19 13:55:00
10:15 AM,70.9,55.8,59,30.02,10.0,SW,3.5,-,N/A,,Clear,220,2013-08-19 14:15:00
10:35 AM,71.6,55.8,57,30.02,10.0,WSW,9.2,-,N/A,,Clear,240,2013-08-19 14:35:00
10:55 AM,71.8,56.3,58,30.02,10.0,SSW,9.2,-,N/A,,Clear,200,2013-08-19 14:55:00
11:15 AM,72.5,57.6,59,30.02,10.0,SW,5.8,-,N/A,,Clear,220,2013-08-19 15:15:00
11:35 AM,72.9,55.9,55,30.02,10.0,West,4.6,-,N/A,,Clear,280,2013-08-19 15:35:00
11:55 AM,73.4,56.7,56,30.01,10.0,West,4.6,-,N/A,,Scattered Clouds,260,2013-08-19 15:55:00
12:15 PM,74.3,57.4,55,30.01,10.0,WSW,9.2,-,N/A,,Mostly Cloudy,250,2013-08-19 16:15:00
12:35 PM,73.8,56.8,55,30.01,10.0,WSW,9.2,-,N/A,,Mostly Cloudy,240,2013-08-19 16:35:00
12:55 PM,74.5,57.4,55,30.00,10.0,SW,6.9,-,N/A,,Mostly Cloudy,220,2013-08-19 16:55:00
1:15 PM,75.2,58.6,56,29.99,10.0,WSW,6.9,-,N/A,,Mostly Cloudy,250,2013-08-19 17:15:00
1:35 PM,74.7,56.3,53,29.99,10.0,West,5.8,-,N/A,,Mostly Cloudy,280,2013-08-19 17:35:00
1:55 PM,75.6,55.0,49,29.99,10.0,West,10.4,16.1,N/A,,Scattered Clouds,280,2013-08-19 17:55:00
2:15 PM,75.7,55.2,49,29.99,10.0,West,11.5,-,N/A,,Scattered Clouds,270,2013-08-19 18:15:00
2:35 PM,76.1,55.4,49,29.99,10.0,West,10.4,18.4,N/A,,Scattered Clouds,280,2013-08-19 18:35:00
2:55 PM,75.6,57.0,52,29.98,10.0,SW,10.4,-,N/A,,Scattered Clouds,230,2013-08-19 18:55:00
3:15 PM,75.4,57.7,54,29.98,10.0,West,10.4,17.3,N/A,,Scattered Clouds,260,2013-08-19 19:15:00
3:35 PM,76.3,57.9,53,29.99,10.0,SW,10.4,-,N/A,,Scattered Clouds,230,2013-08-19 19:35:00
3:55 PM,76.1,55.6,49,29.99,10.0,West,10.4,19.6,N/A,,Clear,260,2013-08-19 19:55:00
4:15 PM,76.1,56.1,50,29.99,10.0,West,11.5,-,N/A,,Scattered Clouds,260,2013-08-19 20:15:00
4:35 PM,75.9,56.5,51,29.99,10.0,WSW,12.7,17.3,N/A,,Scattered Clouds,250,2013-08-19 20:35:00
4:55 PM,75.6,54.5,48,29.99,10.0,West,8.1,16.1,N/A,,Clear,270,2013-08-19 20:55:00
5:15 PM,75.2,55.2,50,29.99,10.0,West,9.2,-,N/A,,Clear,280,2013-08-19 21:15:00
5:35 PM,74.8,55.0,50,29.99,10.0,West,3.5,-,N/A,,Clear,280,2013-08-19 21:35:00
5:55 PM,74.3,56.5,54,29.99,10.0,West,6.9,-,N/A,,Clear,270,2013-08-19 21:55:00
6:15 PM,73.8,56.8,55,29.99,10.0,West,6.9,-,N/A,,Clear,270,2013-08-19 22:15:00
6:35 PM,73.2,57.2,57,30.00,10.0,West,4.6,-,N/A,,Clear,260,2013-08-19 22:35:00
6:55 PM,72.3,56.7,58,30.00,10.0,WSW,6.9,-,N/A,,Scattered Clouds,250,2013-08-19 22:55:00
7:15 PM,71.4,56.7,60,30.00,10.0,WSW,3.5,-,N/A,,Scattered Clouds,240,2013-08-19 23:15:00
7:35 PM,70.0,56.8,63,30.00,10.0,WSW,3.5,-,N/A,,Scattered Clouds,250,2013-08-19 23:35:00
7:55 PM,69.3,56.5,64,30.00,10.0,West,4.6,-,N/A,,Scattered Clouds,260,2013-08-19 23:55:00
8:15 PM,69.8,55.8,61,30.00,10.0,West,9.2,-,N/A,,Clear,270,2013-08-20 00:15:00
8:35 PM,70.3,55.4,59,30.00,10.0,West,5.8,-,N/A,,Clear,260,2013-08-20 00:35:00
8:55 PM,67.3,55.9,67,30.00,10.0,Calm,Calm,-,N/A,,Clear,0,2013-08-20 00:55:00
9:15 PM,66.0,55.8,69,30.01,10.0,SSW,3.5,-,N/A,,Clear,200,2013-08-20 01:15:00
9:35 PM,66.6,55.8,68,30.01,10.0,SW,3.5,-,N/A,,Clear,230,2013-08-20 01:35:00
9:55 PM,66.4,55.8,69,30.01,10.0,South,4.6,-,N/A,,Clear,180,2013-08-20 01:55:00
10:15 PM,66.7,55.8,68,30.01,10.0,South,4.6,-,N/A,,Clear,180,2013-08-20 02:15:00
10:35 PM,66.7,55.6,67,30.01,10.0,South,3.5,-,N/A,,Clear,180,2013-08-20 02:35:00
10:55 PM,65.1,55.9,72,30.01,10.0,Calm,Calm,-,N/A,,Clear,0,2013-08-20 02:55:00
11:15 PM,64.9,55.8,72,30.01,10.0,SW,3.5,-,N/A,,Clear,220,2013-08-20 03:15:00
11:35 PM,64.6,56.1,74,30.01,10.0,SW,3.5,-,N/A,,Clear,230,2013-08-20 03:35:00
11:55 PM,63.9,56.3,76,30.01,10.0,SSW,4.6,-,N/A,,Clear,210,2013-08-20 03:55:00